Total_Precipitation_Accumulation
0.48 0.28 0.34 0.32 0.26 0.27 0.28 0.33 0.37 0.36 0.34 0.32 0.31 0.36 0.43 0.39 0.38 0.42 0.52 0.64 0.79 0.96 1.14 1.27 1.31 1.53 1.67 1.58 1.44 1.40 1.40 1.45 1.63 1.68 1.73 1.84 1.91 1.87 1.99 2.02 1.95 1.74 1.66
0.53 0.31 0.36 0.33 0.30 0.29 0.28 0.30 0.36 0.35 0.34 0.30 0.29 0.35 0.47 0.44 0.42 0.42 0.52 0.62 0.74 0.92 1.02 1.13 1.22 1.34 1.39 1.37 1.32 1.33 1.34 1.39 1.64 1.94 2.10 2.10 2.13 2.05 2.09 2.23 2.30 2.13 1.87
0.67 0.48 0.37 0.34 0.30 0.30 0.28 0.31 0.32 0.33 0.36 0.35 0.29 0.30 0.34 0.36 0.38 0.41 0.46 0.57 0.72 0.87 0.94 1.04 1.14 1.17 1.15 1.15 1.19 1.21 1.20 1.33 1.67 2.13 2.51 2.63 2.43 2.38 2.23 2.15 2.18 2.00 2.05
0.63 0.60 0.45 0.39 0.34 0.29 0.29 0.34 0.36 0.36 0.36 0.33 0.30 0.28 0.30 0.34 0.37 0.42 0.51 0.59 0.76 0.89 0.94 0.94 1.03 1.17 1.16 1.12 1.06 1.05 1.07 1.25 1.63 2.03 2.61 2.74 2.75 2.97 2.48 2.06 1.94 1.87 2.06
0.55 0.56 0.55 0.46 0.40 0.35 0.33 0.36 0.38 0.40 0.38 0.39 0.38 0.37 0.38 0.40 0.42 0.47 0.57 0.65 0.75 0.83 0.92 0.95 1.00 1.18 1.14 1.05 0.97 0.97 1.06 1.29 1.64 1.93 2.45 3.07 3.46 3.37 2.82 2.32 2.06 1.89 1.99
0.59 0.59 0.59 0.53 0.52 0.49 0.45 0.45 0.44 0.43 0.42 0.45 0.47 0.47 0.48 0.54 0.59 0.60 0.69 0.76 0.82 0.86 0.92 0.97 1.02 1.12 1.00 0.93 0.92 0.98 1.10 1.33 1.48 1.78 2.40 3.19 3.14 3.03 2.84 2.65 2.34 2.12 2.02
0.62 0.75 0.63 0.60 0.61 0.63 0.63 0.58 0.55 0.51 0.51 0.53 0.55 0.54 0.56 0.65 0.74 0.75 0.81 0.85 0.92 1.00 1.03 0.99 0.95 0.92 0.82 0.83 0.92 0.99 1.09 1.29 1.43 2.01 2.59 2.99 2.84 2.71 2.71 2.64 2.46 2.26 2.07
0.63 0.67 0.67 0.65 0.67 0.68 0.74 0.80 0.77 0.70 0.67 0.65 0.66 0.63 0.59 0.59 0.67 0.82 0.91 0.96 1.01 1.04 1.01 0.95 0.94 0.88 0.82 0.88 0.96 1.06 1.15 1.13 1.11 1.75 2.40 2.57 2.29 2.45 2.66 2.51 2.40 2.23 2.07
0.75 0.76 0.85 0.90 0.91 0.96 1.02 1.05 1.00 0.93 0.88 0.81 0.75 0.69 0.64 0.63 0.68 0.80 0.99 1.09 1.12 1.10 1.04 0.98 0.97 0.95 0.93 0.97 0.97 1.02 1.09 1.15 1.16 1.53 2.12 2.58 2.06 2.28 2.66 2.57 2.38 2.26 2.11
1.24 1.22 1.26 1.36 1.31 1.24 1.18 1.17 1.12 1.06 1.00 0.93 0.81 0.76 0.76 0.79 0.87 0.99 1.01 1.10 1.18 1.24 1.15 1.10 1.07 1.01 1.00 0.98 0.98 1.09 1.26 1.17 1.12 1.44 1.99 2.13 1.98 2.43 2.82 2.66 2.44 2.33 2.10
1.91 1.85 1.71 1.69 1.59 1.58 1.48 1.27 1.33 1.26 1.21 1.14 1.05 0.97 1.01 1.11 1.31 1.37 1.21 1.31 1.38 1.45 1.41 1.39 1.32 1.24 1.18 1.10 1.11 1.17 1.25 1.13 1.23 1.55 2.13 2.21 2.40 2.75 3.06 2.96 2.69 2.45 2.26
2.43 2.32 2.05 2.12 2.04 1.87 1.73 1.72 1.71 1.56 1.58 1.57 1.58 1.37 1.46 1.85 1.98 1.69 1.77 1.80 1.91 1.87 1.69 1.65 1.57 1.42 1.28 1.22 1.36 1.41 1.12 1.07 1.24 1.50 1.90 2.25 2.57 2.95 3.15 3.04 2.79 2.57 2.46
2.45 2.29 2.39 2.57 2.41 2.40 2.52 2.48 2.30 2.23 2.23 2.10 2.16 1.99 2.08 2.11 2.03 2.05 2.18 2.21 2.28 2.18 2.09 2.08 1.88 1.60 1.55 1.57 1.55 1.43 1.28 1.27 1.31 1.50 1.81 2.17 2.48 2.93 3.20 3.08 2.84 2.73 2.68
2.73 2.49 2.57 2.60 2.60 2.74 2.84 2.94 2.99 2.84 2.82 2.68 2.62 2.44 2.55 2.64 2.66 2.61 2.78 2.85 2.92 2.86 2.76 2.59 2.36 2.25 2.00 1.86 1.74 1.72 1.59 1.50 1.64 1.85 2.02 2.08 2.27 2.68 3.04 3.14 2.98 2.86 2.81
3.32 3.08 2.94 3.06 2.94 2.92 3.16 3.31 3.14 3.27 3.22 3.33 3.30 2.98 3.01 3.02 3.05 3.28 3.31 3.52 3.48 3.44 3.24 3.00 2.64 2.50 2.37 2.12 1.91 1.90 1.89 1.82 1.89 1.97 2.09 2.16 2.21 2.48 2.92 3.20 3.19 3.11 3.16
3.79 3.63 3.36 3.28 3.31 3.22 3.39 3.65 3.63 3.48 3.57 3.60 3.76 3.57 3.48 3.47 3.54 3.63 3.68 3.87 3.73 3.47 3.40 3.22 2.87 2.69 2.52 2.38 2.07 1.90 1.92 2.14 2.09 2.01 2.15 2.22 2.19 2.28 2.65 3.14 3.44 3.59 3.68
3.99 3.77 3.72 3.54 3.80 3.92 4.14 4.13 4.14 4.19 4.21 4.13 4.07 4.13 4.04 4.06 4.12 4.00 4.13 4.23 4.04 3.74 3.67 3.58 3.40 3.04 2.82 2.76 2.56 2.29 2.17 2.23 2.33 2.42 2.42 2.44 2.47 2.45 2.63 2.96 3.29 3.54 3.73
3.92 3.94 4.08 3.86 3.97 4.26 4.31 4.32 4.52 4.77 4.86 4.69 4.49 4.48 4.41 4.52 4.61 4.66 4.49 4.32 4.17 3.96 3.91 4.03 3.75 3.38 3.26 3.27 3.06 2.67 2.35 2.43 2.52 2.52 2.53 2.58 2.75 2.67 2.71 2.72 2.89 3.17 3.46
3.86 3.85 4.08 4.29 4.16 4.43 4.59 4.66 4.88 5.09 5.25 5.12 4.92 4.76 4.80 4.82 4.75 4.88 4.83 4.68 4.49 4.36 4.29 3.96 3.87 3.70 3.63 3.53 3.09 2.86 2.51 2.40 2.49 2.42 2.49 2.59 2.82 2.90 2.89 2.66 2.76 3.11 3.34
3.91 3.97 4.08 4.47 4.52 4.86 5.02 4.88 5.04 5.17 5.22 5.15 5.13 5.06 5.22 5.31 5.16 5.18 5.01 4.90 4.83 4.76 4.62 4.38 4.27 4.12 3.83 3.66 3.18 2.93 2.67 2.42 2.38 2.38 2.34 2.45 2.52 2.56 2.65 2.67 2.70 2.64 2.92
4.16 4.26 4.23 4.40 4.71 4.90 5.08 5.12 5.45 5.45 5.30 5.46 5.68 5.63 5.79 5.86 5.59 5.52 5.37 5.24 5.02 4.83 4.71 4.58 4.38 4.17 3.81 3.68 3.52 3.19 2.73 2.36 2.32 2.29 2.19 2.27 2.30 2.26 2.37 2.48 2.68 2.63 2.51
4.22 4.35 4.56 4.72 4.80 4.97 5.46 5.89 6.26 6.58 6.54 6.46 6.60 6.60 6.41 6.30 6.18 5.95 5.94 5.66 5.29 5.04 4.74 4.50 4.29 3.97 3.63 3.60 3.62 3.69 3.20 2.76 2.21 1.88 1.91 1.95 1.94 1.97 2.07 2.20 2.34 2.44 2.37
3.99 4.21 4.45 4.78 5.19 5.74 6.42 6.87 7.12 7.45 7.57 7.30 7.03 6.84 6.59 6.40 6.21 5.82 5.63 5.55 5.26 4.76 4.48 4.32 4.09 3.87 3.66 3.53 3.44 3.69 3.44 3.02 2.51 2.13 1.87 1.73 1.76 1.88 1.95 2.07 2.13 2.14 2.10
3.58 3.93 4.35 4.80 5.45 6.37 7.07 7.51 7.89 8.02 8.01 7.79 7.48 7.05 6.61 6.22 5.80 5.42 5.18 4.93 4.67 4.34 4.13 3.86 3.76 3.75 3.71 3.52 3.40 3.16 2.91 2.74 2.77 2.51 2.16 1.92 1.84 1.86 1.82 1.80 1.85 1.94 1.99
3.38 3.75 4.19 4.66 5.41 6.17 6.81 7.42 7.92 8.09 8.02 7.72 7.23 6.66 6.14 5.67 5.19 4.72 4.42 4.15 3.91 3.66 3.45 3.24 3.21 3.29 3.35 3.29 3.24 3.13 2.98 2.85 2.69 2.56 2.42 2.32 2.18 2.00 1.86 1.81 1.79 1.80 1.79
3.03 3.39 3.84 4.28 4.87 5.53 6.01 6.60 7.03 7.23 7.12 6.66 6.06 5.44 5.07 4.80 4.45 4.07 3.70 3.44 3.16 2.94 2.79 2.71 2.64 2.64 2.75 2.80 2.86 2.86 2.85 2.93 2.84 2.80 2.61 2.46 2.39 2.20 2.03 1.91 1.84 1.80 1.73